This is the latest recevied weather packets stored in our database for station/object N2ZVN. If no packets are shown the sender has not sent any weather packets the latest 10 day(s).
| Time | Temp. | Humidity | Pressure | Rain* | Wind** | Luminosity | Snow |
|---|---|---|---|---|---|---|---|
| 1788077854 | 17.78° C | 81% | 1020.1 hPa | 0 mm | - | 0 W/m² | - |
| 1788077548 | 17.78° C | 84% | 1020.1 hPa | 0 mm | - | 0 W/m² | - |
| 1788077248 | 17.78° C | 86% | 1020.2 hPa | 0 mm | - | 0 W/m² | - |
| 1788076944 | 17.78° C | 84% | 1020.4 hPa | 0 mm | - | 0 W/m² | - |
| 1788076644 | 17.78° C | 87% | 1020.3 hPa | 0 mm | - | 0 W/m² | - |
| 1788076340 | 17.78° C | 84% | 1020.4 hPa | 0 mm | - | 0 W/m² | - |
| 1788076040 | 17.78° C | 82% | 1020.4 hPa | 0 mm | - | 0 W/m² | - |
| 1788075736 | 17.78° C | 84% | 1020.1 hPa | 0 mm | - | 0 W/m² | - |
| 1788075432 | 17.78° C | 83% | 1020.3 hPa | 0 mm | - | 0 W/m² | - |
| 1788075128 | 17.78° C | 84% | 1020.4 hPa | 0 mm | - | 0 W/m² | - |
| 1788074827 | 17.78° C | 82% | 1020.4 hPa | 0 mm | - | 0 W/m² | - |
| 1788074522 | 17.78° C | 83% | 1020.4 hPa | 0 mm | - | 0 W/m² | - |
| 1788074217 | 17.78° C | 83% | 1020.4 hPa | 0 mm | - | 0 W/m² | - |
| 1788073916 | 17.78° C | 85% | 1020.3 hPa | 0 mm | - | 0 W/m² | - |
| 1788073610 | 17.78° C | 84% | 1020.3 hPa | 0 mm | - | 0 W/m² | - |
| 1788073305 | 17.78° C | 87% | 1020.4 hPa | 0 mm | - | 0 W/m² | - |
| 1788073004 | 17.22° C | 86% | 1020.1 hPa | 0 mm | - | 0 W/m² | - |
| 1788072698 | 17.78° C | 88% | 1020.3 hPa | 0 mm | - | 0 W/m² | - |
| 1788072397 | 17.22° C | 86% | 1020.3 hPa | 0 mm | - | 0 W/m² | - |
| 1788072093 | 17.22° C | 87% | 1020.4 hPa | 0 mm | - | 0 W/m² | - |
| 1788071792 | 17.22° C | 89% | 1020.3 hPa | 0 mm | - | 0 W/m² | - |
| 1788071492 | 17.22° C | 89% | 1020.5 hPa | 0 mm | - | 0 W/m² | - |
| 1788071186 | 17.22° C | 86% | 1020.3 hPa | 0 mm | - | 0 W/m² | - |
| 1788070881 | 17.22° C | 88% | 1020.5 hPa | 0 mm | - | 0 W/m² | - |
| 1788070575 | 17.22° C | 89% | 1020.7 hPa | 0 mm | - | 0 W/m² | - |
* Rain latest hour (hover to see other rain measurements)
** Current wind speed in m/s (hover to see current wind gust speed)